Weather History for K40J - June, 2013

Change the Weather History Date:

Tuesday, June 4, 2013

  Actual Average (KCTY) Record (KCTY)
Temperature  
Mean Temperature 80 °F 79 °F  
Max Temperature 88 °F 90 °F 98 °F (2001)
Min Temperature 71 °F 67 °F 65 °F (2014)
Degree Days  
Heating Degree Days 0 0  
Month to date heating degree days 0  
Since 1 June heating degree days 0  
Since 1 July heating degree days 1306  
Cooling Degree Days 14 14  
Month to date cooling degree days 55  
Year to date cooling degree days 534  
Since 1 June cooling degree days 55  
Growing Degree Days 30 (Base 50)    
Moisture  
Dew Point 71 °F    
Average Humidity 83    
Maximum Humidity 100    
Minimum Humidity 57    
Precipitation  
Precipitation 1.06 in 0.11 in 1.01 in (2013)
Month to date precipitation 0.42  
Year to date precipitation 17.59  
Sea Level Pressure  
Sea Level Pressure 29.98 in    
Wind  
Wind Speed 3 mph (South)    
Max Wind Speed 14 mph    
Max Gust Speed 21 mph    
Visibility 9 miles    
Events Rain , Thunderstorm    
T = Trace of Precipitation, MM = Missing Value Source: NWS Daily Summary

Daily Weather History Graph

Daily Weather History Graph

Search for Another Location

Airport or City:

Trip Planner

Search our weather history database for the weather conditions in past years. The results will help you decide how hot, cold, wet, or windy it might be!

Date:

Astronomy

Jun. 04, 2013 Rise Set
Actual Time 6:32 AM EDT 8:32 PM EDT
Civil Twilight 6:05 AM EDT 8:59 PM EDT
Nautical Twilight 5:32 AM EDT 9:32 PM EDT
Astronomical Twilight 4:57 AM EDT 10:08 PM EDT
Moon 3:48 AM EDT (6/4) 5:12 PM EDT (6/4)
Length of Visible Light 14h 54m
Length of Day
13h 59m
Waning Crescent, 14% of the Moon is Illuminated
Jun 4
Waning Crescent
Jun 8
New
Jun 16
First Quarter
Jun 23
Full
Jun 30
Last Quarter

Hourly Weather History & Observations

Time (EDT) Temp. Heat Index Dew Point Humidity Pressure Visibility Wind Dir Wind Speed Gust Speed Precip Events Conditions
12:15 AM 73.4 °F - 71.6 °F 94% 29.97 in 10.0 mi SSW 3.5 mph - N/A   Clear
12:35 AM 73.4 °F - 69.8 °F 88% 29.96 in 10.0 mi Calm Calm - N/A   Clear
12:53 AM 75.0 °F - 71.1 °F 87% 29.94 in - Calm Calm - N/A   Unknown
12:55 AM 73.4 °F - 69.8 °F 88% 29.96 in 10.0 mi Calm Calm - N/A   Clear
1:15 AM 73.4 °F - 69.8 °F 88% 29.96 in 10.0 mi ESE 3.5 mph - N/A   Clear
1:35 AM 73.4 °F - 71.6 °F 94% 29.96 in 10.0 mi Calm Calm - N/A   Scattered Clouds
1:53 AM 73.9 °F - 71.1 °F 91% 29.95 in - ESE 3.5 mph - N/A   Unknown
1:55 AM 71.6 °F - 69.8 °F 94% 29.96 in 10.0 mi SE 3.5 mph - N/A   Mostly Cloudy
2:15 AM 71.6 °F - 69.8 °F 94% 29.96 in 10.0 mi Calm Calm - N/A   Mostly Cloudy
2:35 AM 71.6 °F - 71.6 °F 100% 29.96 in 10.0 mi SE 3.5 mph - N/A   Mostly Cloudy
2:53 AM 73.9 °F - 71.1 °F 91% 29.94 in - SE 3.5 mph - 0.02 in   Unknown
2:55 AM 71.6 °F - 71.6 °F 100% 29.95 in 10.0 mi SE 3.5 mph - N/A   Mostly Cloudy
3:15 AM 71.6 °F - 71.6 °F 100% 29.95 in 10.0 mi Calm Calm - N/A   Mostly Cloudy
3:35 AM 73.4 °F - 71.6 °F 94% 29.95 in 7.0 mi SSW 3.5 mph - N/A Rain Rain
3:53 AM 75.9 °F - 72.0 °F 87% 29.93 in - Calm Calm - 0.01 in   Unknown
3:55 AM 73.4 °F - 71.6 °F 94% 29.94 in 10.0 mi Calm Calm - N/A   Mostly Cloudy
4:15 AM 73.4 °F - 71.6 °F 94% 29.95 in 7.0 mi Calm Calm - N/A   Clear
4:35 AM 71.6 °F - 69.8 °F 94% 29.95 in 7.0 mi Calm Calm - N/A   Clear
4:53 AM 73.9 °F - 71.1 °F 91% 29.93 in - Calm Calm - N/A   Unknown
4:55 AM 71.6 °F - 71.6 °F 100% 29.95 in 10.0 mi Calm Calm - N/A   Clear
5:15 AM 71.6 °F - 71.6 °F 100% 29.94 in 10.0 mi Calm Calm - N/A   Clear
5:35 AM 71.6 °F - 69.8 °F 94% 29.95 in 10.0 mi Calm Calm - N/A   Scattered Clouds
5:53 AM 73.9 °F - 71.1 °F 91% 29.94 in - Calm Calm - N/A   Unknown
5:55 AM 71.6 °F - 69.8 °F 94% 29.96 in 7.0 mi Calm Calm - N/A   Mostly Cloudy
6:15 AM 71.6 °F - 71.6 °F 100% 29.96 in 10.0 mi Calm Calm - N/A   Overcast
6:35 AM 73.4 °F - 71.6 °F 94% 29.96 in 10.0 mi Calm Calm - N/A   Overcast
6:53 AM 75.0 °F - 72.0 °F 90% 29.95 in - Calm Calm - 0.02 in   Unknown
6:55 AM 71.6 °F - 71.6 °F 100% 29.97 in 7.0 mi Calm Calm - N/A   Overcast
7:15 AM 73.4 °F - 71.6 °F 94% 29.97 in 7.0 mi Calm Calm - N/A   Overcast
7:35 AM 73.4 °F - 71.6 °F 94% 29.98 in 10.0 mi Calm Calm - N/A   Mostly Cloudy
7:53 AM 77.0 °F - 73.0 °F 88% 29.97 in - SSE 5.8 mph - N/A   Unknown
7:55 AM 73.4 °F - 73.4 °F 100% 29.98 in 10.0 mi SSE 4.6 mph - N/A   Scattered Clouds
8:15 AM 73.4 °F - 71.6 °F 94% 30.00 in 5.0 mi South 6.9 mph - N/A Rain Heavy Rain
8:35 AM 71.6 °F - 71.6 °F 100% 30.00 in 2.5 mi SSE 6.9 mph - 0.09 in Rain Rain
8:53 AM 75.9 °F - 72.0 °F 87% 29.99 in - Calm Calm - 0.15 in   Unknown
8:55 AM 73.4 °F - 71.6 °F 94% 30.01 in 7.0 mi Calm Calm - 0.11 in Rain Rain
9:15 AM 73.4 °F - 71.6 °F 94% 30.01 in 2.0 mi SSW 5.8 mph - 0.19 in Rain Heavy Rain
9:35 AM 73.4 °F - 71.6 °F 94% 30.01 in 4.0 mi SE 3.5 mph - 0.29 in Rain Rain
9:53 AM 75.9 °F - 72.0 °F 87% 30.01 in - SSE 6.9 mph - 0.43 in   Unknown
9:55 AM 73.4 °F - 71.6 °F 94% 30.02 in 10.0 mi SSE 5.8 mph - 0.30 in   Overcast
10:15 AM 73.4 °F - 71.6 °F 94% 30.02 in 10.0 mi Calm Calm - N/A   Overcast
10:35 AM 73.4 °F - 71.6 °F 94% 30.02 in 10.0 mi Calm Calm - N/A   Overcast
10:53 AM 77.0 °F - 72.0 °F 84% 30.01 in - Calm Calm - N/A   Unknown
10:55 AM 73.4 °F - 71.6 °F 94% 30.02 in 10.0 mi Calm Calm - N/A   Overcast
11:15 AM 75.2 °F - 71.6 °F 89% 30.02 in 10.0 mi Calm Calm - N/A   Overcast
11:35 AM 77.0 °F - 73.4 °F 89% 30.02 in 10.0 mi Calm Calm - N/A   Mostly Cloudy
11:53 AM 81.0 °F 86.2 °F 73.9 °F 79% 30.00 in - SE 5.8 mph - N/A   Unknown
11:55 AM 78.8 °F - 73.4 °F 83% 30.02 in 10.0 mi SE 4.6 mph - N/A   Mostly Cloudy
12:15 PM 80.6 °F 85.4 °F 73.4 °F 79% 30.01 in 10.0 mi ESE 5.8 mph - N/A   Scattered Clouds
12:35 PM 80.6 °F 84.6 °F 71.6 °F 74% 30.01 in 10.0 mi SSE 5.8 mph - N/A   Mostly Cloudy
12:53 PM 84.0 °F 89.6 °F 72.0 °F 67% 30.00 in - West 8.1 mph - N/A   Unknown
12:55 PM 82.4 °F 87.2 °F 71.6 °F 70% 30.01 in 10.0 mi West 4.6 mph - N/A   Mostly Cloudy
1:15 PM 78.8 °F - 69.8 °F 74% 30.00 in 10.0 mi NW 3.5 mph - N/A   Overcast
1:35 PM 82.4 °F 87.2 °F 71.6 °F 70% 30.00 in 10.0 mi Calm Calm - N/A   Mostly Cloudy
1:53 PM 82.9 °F 88.0 °F 72.0 °F 69% 29.98 in - NW 5.8 mph - N/A   Unknown
1:55 PM 80.6 °F 84.6 °F 71.6 °F 74% 29.99 in 10.0 mi NNW 5.8 mph - N/A   Overcast
2:15 PM 80.6 °F 84.6 °F 71.6 °F 74% 29.99 in 10.0 mi NW 4.6 mph - N/A   Overcast
2:35 PM 78.8 °F - 71.6 °F 78% 29.98 in 0.8 mi Calm Calm - 0.34 in Rain Heavy Rain
2:53 PM 82.9 °F 89.4 °F 73.9 °F 74% 29.96 in - Calm Calm - 0.41 in   Unknown
2:55 PM 78.8 °F - 73.4 °F 83% 29.97 in 10.0 mi West 3.5 mph - 0.37 in Rain Light Rain
3:15 PM 84.2 °F 90.9 °F 73.4 °F 70% 29.97 in 10.0 mi SW 8.1 mph - N/A   Mostly Cloudy
3:35 PM 86.0 °F 91.8 °F 71.6 °F 62% 29.96 in 10.0 mi WSW 9.2 mph - N/A   Scattered Clouds
3:53 PM 88.0 °F 93.8 °F 71.1 °F 57% 29.95 in - SW 11.5 mph 19.6 mph 0.01 in   Unknown
3:55 PM 86.0 °F 90.4 °F 69.8 °F 58% 29.96 in 10.0 mi SW 11.5 mph 17.3 mph N/A   Mostly Cloudy
4:15 PM 86.0 °F 90.4 °F 69.8 °F 58% 29.96 in 10.0 mi SSW 9.2 mph - N/A   Overcast
4:35 PM 86.0 °F 91.8 °F 71.6 °F 62% 29.96 in 10.0 mi SSW 8.1 mph - N/A   Mostly Cloudy
4:53 PM 88.0 °F 94.7 °F 72.0 °F 59% 29.94 in - SSW 12.7 mph 20.7 mph N/A   Unknown
4:55 PM 86.0 °F 91.8 °F 71.6 °F 62% 29.96 in 10.0 mi SSW 9.2 mph - N/A   Mostly Cloudy
5:15 PM 86.0 °F 90.4 °F 69.8 °F 58% 29.95 in 10.0 mi South 10.4 mph - N/A Thunderstorm Mostly Cloudy
5:35 PM 84.2 °F 88.4 °F 69.8 °F 62% 29.94 in 10.0 mi SW 13.8 mph - N/A   Clear
5:53 PM 84.9 °F 90.1 °F 71.1 °F 63% 29.94 in - SSW 11.5 mph - N/A   Unknown
5:55 PM 82.4 °F 86.3 °F 69.8 °F 66% 29.96 in 10.0 mi SSW 11.5 mph 16.1 mph N/A Thunderstorm Thunderstorm
6:15 PM 82.4 °F 86.3 °F 69.8 °F 66% 29.97 in 10.0 mi SSW 9.2 mph - N/A   Mostly Cloudy
6:35 PM 80.6 °F 83.9 °F 69.8 °F 70% 29.98 in 10.0 mi SW 9.2 mph - N/A Thunderstorm Thunderstorm
6:53 PM 84.0 °F 89.6 °F 72.0 °F 67% 29.96 in - South 6.9 mph - N/A   Unknown
6:55 PM 82.4 °F 87.2 °F 71.6 °F 70% 29.98 in 10.0 mi South 8.1 mph - N/A Thunderstorm Scattered Clouds
7:15 PM 80.6 °F 84.6 °F 71.6 °F 74% 29.98 in 10.0 mi SW 8.1 mph - N/A   Mostly Cloudy
7:35 PM 80.6 °F 83.9 °F 69.8 °F 70% 29.98 in 10.0 mi SSW 8.1 mph - N/A   Mostly Cloudy
7:53 PM 81.0 °F 84.9 °F 71.1 °F 72% 29.97 in - SSW 9.2 mph - N/A   Unknown
7:55 PM 78.8 °F - 71.6 °F 78% 29.98 in 10.0 mi SSW 8.1 mph - N/A   Scattered Clouds
8:15 PM 78.8 °F - 71.6 °F 78% 29.98 in 10.0 mi SSW 9.2 mph - N/A   Clear
8:35 PM 78.8 °F - 71.6 °F 78% 29.98 in 10.0 mi South 6.9 mph - N/A   Clear
8:53 PM 79.0 °F - 72.0 °F 79% 29.97 in - South 8.1 mph - 0.01 in   Unknown
8:55 PM 77.0 °F - 71.6 °F 83% 29.99 in 10.0 mi South 5.8 mph - N/A   Clear
9:15 PM 77.0 °F - 71.6 °F 83% 29.98 in 10.0 mi South 5.8 mph - N/A   Clear
9:35 PM 77.0 °F - 71.6 °F 83% 29.98 in 10.0 mi South 4.6 mph - N/A   Clear
9:53 PM 78.1 °F - 72.0 °F 81% 29.98 in - SSW 4.6 mph - N/A   Unknown
9:55 PM 77.0 °F - 71.6 °F 83% 29.99 in 10.0 mi SSW 4.6 mph - N/A   Scattered Clouds
10:15 PM 77.0 °F - 71.6 °F 83% 30.00 in 10.0 mi Calm Calm - N/A   Clear
10:35 PM 77.0 °F - 71.6 °F 83% 30.01 in 10.0 mi SSE 3.5 mph - N/A   Scattered Clouds
10:53 PM 77.0 °F - 71.1 °F 82% 30.00 in - SE 3.5 mph - N/A   Unknown
10:55 PM 75.2 °F - 71.6 °F 89% 30.01 in 10.0 mi Calm Calm - N/A   Scattered Clouds
11:15 PM 75.2 °F - 71.6 °F 89% 30.01 in 10.0 mi South 3.5 mph - N/A   Clear
11:35 PM 75.2 °F - 71.6 °F 89% 30.02 in 10.0 mi Calm Calm - N/A   Clear
11:53 PM 75.9 °F - 71.1 °F 85% 30.01 in - Calm Calm - N/A   Unknown
11:55 PM 73.4 °F - 71.6 °F 94% 30.02 in 10.0 mi Calm Calm - N/A   Clear